FW6081 Weather Reports


time (UTC)temp
C
wind
direction
speed
KPH
gust
KPH
rain 1hr
cm
rain 24hr
cm
rain mn
cm
humidity
%
barometer
mb
20211025042015 21 312 0.0 3.2 0.00 0.00 0.00 81 1012.0
20211025041517 21 173 0.0 3.2 0.00 0.00 0.00 81 1011.7
20211025041008 21 173 0.0 1.6 0.00 0.00 0.00 80 1011.7
20211025040510 21 173 0.0 1.6 0.00 0.00 0.00 80 1011.6
20211025040022 21 173 0.0 1.6 0.00 0.00 0.00 79 1011.6
20211025035515 21 173 0.0 1.6 0.00 0.00 0.00 79 1011.6
20211025035004 21 173 0.0 1.6 0.00 0.00 0.00 79 1011.5
20211025034528 22 173 0.0 3.2 0.00 0.00 0.00 79 1011.5
20211025034013 22 173 0.0 3.2 0.00 0.00 0.00 79 1011.4
20211025033502 22 173 0.0 1.6 0.00 0.00 0.00 79 1011.2
20211025033003 22 173 0.0 0.0 0.00 0.00 0.00 78 1011.0
20211025032559 22 173 0.0 0.0 0.00 0.00 0.00 78 1010.9
20211025032101 22 173 0.0 0.0 0.00 0.00 0.00 78 1010.8
20211025031100 22 173 0.0 0.0 0.00 0.00 0.00 78 1010.8
20211025030604 22 173 0.0 0.0 0.00 0.00 0.00 78 1010.7
20211025030340 22 173 0.0 0.0 0.00 0.00 0.00 78 1010.5
20211025025602 22 173 0.0 1.6 0.00 0.00 0.00 78 1010.5
20211025025059 22 173 0.0 1.6 0.00 0.00 0.00 78 1010.5
20211025024652 22 173 0.0 1.6 0.00 0.00 0.00 78 1010.4
20211025024058 22 167 0.0 0.0 0.00 0.00 0.00 78 1010.4
20211025023558 22 167 0.0 0.0 0.00 0.00 0.00 78 1010.2
20211025023224 23 167 0.0 0.0 0.00 0.00 0.00 78 1010.1
20211025022558 23 167 0.0 0.0 0.00 0.00 0.00 78 1010.0
20211025022058 23 167 0.0 0.0 0.00 0.00 0.00 77 1010.0
20211025021630 23 167 0.0 0.0 0.00 0.00 0.00 77 1009.9
20211025021056 23 167 0.0 0.0 0.00 0.00 0.00 76 1009.8
20211025020605 23 167 0.0 1.6 0.00 0.00 0.00 76 1009.7
20211025020104 23 167 0.0 1.6 0.00 0.00 0.00 76 1009.8
20211025015556 24 167 0.0 1.6 0.00 0.00 0.00 76 1009.6
20211025015104 24 167 0.0 3.2 0.00 0.00 0.00 75 1009.6
20211025014849 24 167 0.0 3.2 0.00 0.00 0.00 75 1009.6
20211025014056 24 167 0.0 1.6 0.00 0.00 0.00 75 1009.5
20211025013556 24 167 0.0 6.4 0.00 0.00 0.00 74 1009.6
20211025013152 24 169 0.0 1.6 0.00 0.00 0.00 76 1009.5
20211025012556 24 306 0.0 8.0 0.00 0.00 0.00 76 1009.6
20211025012102 25 306 3.2 8.0 0.00 0.00 0.00 75 1009.7
20211025011737 25 236 0.0 6.4 0.00 0.00 0.00 73 1009.6
20211025011055 25 168 0.0 3.2 0.00 0.00 0.00 71 1009.4
20211025010555 26 148 0.0 3.2 0.00 0.00 0.00 70 1009.3
20211025010133 26 148 0.0 11.3 0.00 0.00 0.00 68 1008.9
20211025005554 26 148 1.6 11.3 0.00 0.00 0.00 67 1008.8
20211025005055 26 123 1.6 4.8 0.00 0.00 0.00 67 1008.3
20211025004606 26 182 0.0 8.0 0.00 0.00 0.00 67 1008.4
20211025004101 26 155 0.0 8.0 0.00 0.00 0.00 66 1008.1
20211025003554 26 144 1.6 11.3 0.00 0.00 0.00 66 1007.8
20211025003323 26 211 3.2 11.3 0.00 0.00 0.00 65 1007.6
20211025002626 26 161 3.2 11.3 0.00 0.00 0.00 65 1007.5
20211025002121 26 128 3.2 11.3 0.00 0.00 0.00 65 1007.7
20211025001632 26 152 3.2 12.9 0.00 0.00 0.00 64 1007.6
20211025001053 26 188 1.6 14.5 0.00 0.00 0.00 64 1007.7
20211025000553 26 177 3.2 14.5 0.00 0.00 0.00 64 1007.4
20211025000155 26 119 3.2 12.9 0.00 0.00 0.00 63 1007.1
20211024235552 26 193 3.2 12.9 0.00 0.00 0.00 63 1007.2
20211024235058 27 155 3.2 9.7 0.00 0.00 0.00 63 1007.2
20211024234645 27 125 4.8 16.1 0.00 0.00 0.00 63 1007.1
20211024234059 27 170 4.8 12.9 0.00 0.00 0.00 63 1007.0
20211024233554 27 195 3.2 14.5 0.00 0.00 0.00 62 1007.0
20211024233132 27 135 1.6 12.9 0.00 0.00 0.00 62 1007.1
20211024232550 27 117 3.2 12.9 0.00 0.00 0.00 62 1007.2
20211024232050 27 147 3.2 17.7 0.00 0.00 0.00 62 1007.3
20211024231645 27 138 4.8 17.7 0.00 0.00 0.00 62 1007.2
20211024231050 27 183 3.2 12.9 0.00 0.00 0.00 62 1007.3
20211024230558 27 134 3.2 12.9 0.00 0.00 0.00 62 1007.4
20211024230149 27 179 1.6 14.5 0.00 0.00 0.00 62 1007.3
20211024225550 27 197 3.2 14.5 0.00 0.00 0.00 62 1007.5
20211024225049 27 128 4.8 14.5 0.00 0.00 0.00 62 1007.3
20211024224615 27 141 1.6 12.9 0.00 0.00 0.00 62 1007.3
20211024224048 27 194 4.8 16.1 0.00 0.00 0.00 61 1007.4
20211024223549 27 133 1.6 16.1 0.00 0.00 0.00 61 1007.4
20211024223248 27 159 3.2 12.9 0.00 0.00 0.00 61 1007.4
20211024222606 27 134 4.8 11.3 0.00 0.00 0.00 61 1007.6
20211024222101 27 159 1.6 14.5 0.00 0.00 0.00 61 1007.7
20211024221621 27 137 6.4 14.5 0.00 0.00 0.00 61 1007.7
20211024221048 27 134 1.6 11.3 0.00 0.00 0.00 61 1007.6
20211024220556 27 148 3.2 12.9 0.00 0.00 0.00 61 1007.7
20211024220116 27 140 3.2 16.1 0.00 0.00 0.00 61 1007.8
20211024215554 27 104 3.2 19.3 0.00 0.00 0.00 60 1007.7
20211024215047 28 120 4.8 12.9 0.00 0.00 0.00 61 1007.8
20211024214613 28 130 3.2 14.5 0.00 0.00 0.00 60 1007.8
20211024214108 28 141 6.4 14.5 0.00 0.00 0.00 60 1007.8
20211024213546 28 98 4.8 19.3 0.00 0.00 0.00 60 1007.8
20211024213120 28 136 4.8 19.3 0.00 0.00 0.00 60 1007.6
20211024212546 28 140 4.8 16.1 0.00 0.00 0.00 60 1007.6
20211024212046 28 170 4.8 16.1 0.00 0.00 0.00 60 1007.5
20211024211648 28 173 1.6 16.1 0.00 0.00 0.00 61 1007.5
20211024211046 27 319 3.2 12.9 0.00 0.00 0.00 61 1007.6
20211024210549 27 165 0.0 8.0 0.00 0.00 0.00 62 1007.5
20211024210134 27 157 1.6 12.9 0.00 0.00 0.00 61 1007.5
20211024205558 28 169 3.2 12.9 0.00 0.00 0.00 61 1007.5
20211024205117 28 349 1.6 8.0 0.00 0.00 0.00 61 1007.4
20211024204625 28 187 1.6 12.9 0.00 0.00 0.00 61 1007.4
20211024204104 28 114 1.6 16.1 0.00 0.00 0.00 61 1007.3
20211024203543 28 86 4.8 16.1 0.00 0.00 0.00 60 1007.1
20211024203116 28 119 3.2 14.5 0.00 0.00 0.00 61 1007.3
20211024202542 27 171 4.8 19.3 0.00 0.00 0.00 61 1007.3
20211024202039 27 200 6.4 19.3 0.00 0.00 0.00 61 1007.3
20211024201552 27 188 8.0 16.1 0.00 0.00 0.00 62 1007.3
20211024201040 27 144 3.2 16.1 0.00 0.00 0.00 62 1007.3
20211024200539 27 155 4.8 16.1 0.00 0.00 0.00 62 1007.2
20211024200125 27 153 4.8 16.1 0.00 0.00 0.00 62 1007.3
20211024195548 27 105 6.4 14.5 0.00 0.00 0.00 62 1007.5
20211024195042 27 177 1.6 14.5 0.00 0.00 0.00 63 1007.5
20211024194608 27 186 6.4 17.7 0.00 0.00 0.00 64 1007.3
20211024194042 27 132 4.8 19.3 0.00 0.00 0.00 64 1007.6
20211024193533 27 191 4.8 19.3 0.00 0.00 0.00 65 1007.6
20211024193038 26 159 4.8 17.7 0.00 0.00 0.00 66 1007.7
20211024192533 26 148 3.2 19.3 0.00 0.00 0.00 66 1008.0
20211024192032 26 152 6.4 19.3 0.00 0.00 0.00 65 1008.0
20211024191610 26 153 3.2 11.3 0.00 0.00 0.00 66 1008.2
20211024191046 26 164 4.8 12.9 0.00 0.00 0.00 66 1008.3
20211024190532 26 150 3.2 16.1 0.00 0.00 0.00 65 1008.4
20211024190035 26 132 3.2 16.1 0.00 0.00 0.00 67 1008.3
20211024185531 26 216 4.8 29.0 0.00 0.00 0.00 66 1008.3
20211024185029 26 171 4.8 29.0 0.00 0.00 0.00 66 1008.3
20211024184538 26 188 3.2 17.7 0.00 0.00 0.00 67 1008.1
20211024184027 26 175 4.8 17.7 0.00 0.00 0.00 66 1008.1
20211024183536 26 151 3.2 16.1 0.00 0.00 0.00 67 1008.1
20211024183103 26 146 4.8 12.9 0.00 0.00 0.00 68 1008.2
20211024182525 26 120 3.2 16.1 0.00 0.00 0.00 69 1008.2
20211024182022 25 134 4.8 16.1 0.00 0.00 0.00 69 1008.5
20211024181539 25 207 3.2 12.9 0.00 0.00 0.00 69 1008.7
20211024181032 25 158 3.2 14.5 0.00 0.00 0.00 69 1008.8
20211024180521 25 132 6.4 17.7 0.00 0.00 0.00 69 1008.9
20211024175549 25 130 8.0 19.3 0.00 0.00 0.00 68 1008.9
20211024175029 25 125 4.8 22.5 0.00 0.00 0.00 68 1008.9
20211024174556 25 147 6.4 22.5 0.00 0.00 0.00 68 1009.0
20211024174017 25 148 4.8 16.1 0.00 0.00 0.00 68 1009.2
20211024173533 25 133 6.4 16.1 0.00 0.00 0.00 69 1009.2
20211024173021 25 121 8.0 19.3 0.00 0.00 0.00 69 1009.2
20211024172522 25 152 4.8 19.3 0.00 0.00 0.00 70 1009.2
20211024172018 25 165 6.4 17.7 0.00 0.00 0.00 70 1009.3
20211024171515 25 163 9.7 17.7 0.00 0.00 0.00 70 1009.3
20211024171015 24 130 8.0 16.1 0.00 0.00 0.00 70 1009.4
20211024170513 24 145 4.8 16.1 0.00 0.00 0.00 71 1009.6
20211024170010 23 134 6.4 19.3 0.00 0.00 0.00 71 1009.6
20211024165511 23 164 4.8 24.1 0.00 0.00 0.00 72 1009.6
20211024165008 23 188 6.4 24.1 0.00 0.00 0.00 72 1009.6
20211024164510 23 182 8.0 24.1 0.00 0.00 0.00 72 1009.8
20211024164009 23 242 8.0 16.1 0.00 0.00 0.00 72 1010.0
20211024163504 22 191 3.2 16.1 0.00 0.00 0.00 73 1009.9
20211024163004 22 123 6.4 16.1 0.00 0.00 0.00 73 1010.1
20211024162503 22 145 4.8 14.5 0.00 0.00 0.00 73 1010.2
20211024162003 22 154 6.4 17.7 0.00 0.00 0.00 74 1010.0
20211024161502 22 148 6.4 19.3 0.00 0.00 0.00 75 1010.0
20211024161002 22 173 4.8 17.7 0.00 0.00 0.00 76 1010.0
20211024160501 21 129 4.8 14.5 0.00 0.00 0.00 76 1010.0
20211024160009 21 140 4.8 16.1 0.00 0.00 0.00 77 1009.9
20211024155503 21 175 4.8 16.1 0.00 0.00 0.00 78 1010.2
20211024155112 21 175 6.4 16.1 0.00 0.00 0.00 79 1010.2
20211024154658 21 123 4.8 17.7 0.00 0.00 0.00 82 1010.4
20211024154059 20 163 3.2 17.7 0.00 0.00 0.00 85 1010.4
20211024153603 20 142 4.8 16.1 0.00 0.00 0.00 88 1010.5
20211024153200 20 115 6.4 12.9 0.00 0.00 0.00 90 1010.6
20211024152558 20 171 3.2 16.1 0.00 0.00 0.00 91 1010.8
20211024152057 20 157 1.6 8.0 0.00 0.00 0.00 90 1010.8
20211024151631 20 179 0.0 11.3 0.00 0.00 0.00 90 1010.9
20211024151055 19 122 0.0 14.5 0.00 0.00 0.00 89 1010.7
20211024150555 19 196 3.2 14.5 0.00 0.00 0.00 89 1010.6
20211024150122 19 138 1.6 11.3 0.00 0.00 0.00 89 1010.4
20211024145554 19 130 3.2 8.0 0.00 0.00 0.00 89 1010.5
20211024145106 19 150 1.6 8.0 0.00 0.00 0.00 88 1010.5
20211024144654 19 152 3.2 11.3 0.00 0.00 0.00 87 1010.6
20211024144053 19 207 1.6 11.3 0.00 0.00 0.00 86 1010.4
20211024143551 19 159 3.2 14.5 0.00 0.00 0.00 85 1010.3
20211024143133 19 175 3.2 14.5 0.00 0.00 0.00 84 1010.2
20211024142610 19 197 1.6 9.7 0.00 0.00 0.00 84 1010.2
20211024142048 19 144 3.2 9.7 0.00 0.00 0.00 82 1010.4
20211024141626 19 125 3.2 9.7 0.00 0.00 0.00 82 1010.4
20211024141110 19 169 1.6 11.3 0.00 0.00 0.00 81 1010.5
20211024140553 20 156 1.6 6.4 0.00 0.00 0.00 80 1010.5
20211024140119 20 132 1.6 11.3 0.00 0.00 0.00 79 1010.6
20211024135544 20 140 1.6 11.3 0.00 0.00 0.00 79 1010.6
20211024135113 20 121 0.0 11.3 0.00 0.00 0.00 79 1010.6
20211024134622 20 144 0.0 8.0 0.00 0.00 0.00 79 1010.5
20211024134042 20 157 1.6 8.0 0.00 0.00 0.00 79 1010.5
20211024133553 20 122 1.6 6.4 0.00 0.00 0.00 78 1010.4
20211024133130 20 150 1.6 8.0 0.00 0.00 0.00 78 1010.5
20211024132542 20 127 1.6 6.4 0.00 0.00 0.00 78 1010.4
20211024132052 20 146 1.6 9.7 0.00 0.00 0.00 78 1010.4
20211024131634 20 136 1.6 9.7 0.00 0.00 0.00 78 1010.3
20211024131040 20 194 1.6 8.0 0.00 0.00 0.00 77 1010.2
20211024130558 20 161 1.6 9.7 0.00 0.00 0.00 77 1010.1
20211024130051 20 163 4.8 9.7 0.00 0.00 0.00 77 1010.1
20211024125538 20 206 3.2 11.3 0.00 0.00 0.00 77 1010.1
20211024124558 20 196 0.0 11.3 0.00 0.00 0.00 77 1010.0
20211024124037 20 138 3.2 11.3 0.00 0.00 0.00 77 1010.1
20211024123541 20 149 1.6 14.5 0.00 0.00 0.00 77 1010.1
20211024123133 20 126 1.6 14.5 0.00 0.00 0.00 77 1010.0
20211024122538 20 136 3.2 9.7 0.00 0.00 0.00 77 1009.9
20211024122036 20 126 1.6 9.7 0.00 0.00 0.00 77 1009.9
20211024121637 20 143 3.2 11.3 0.00 0.00 0.00 77 1009.9
20211024121037 20 125 3.2 11.3 0.00 0.00 0.00 77 1009.9
20211024120534 20 134 3.2 9.7 0.00 0.00 0.00 77 1009.9
20211024120148 20 166 3.2 12.9 0.00 0.00 0.00 77 1009.8
20211024115534 19 148 3.2 16.1 0.00 0.00 0.00 77 1009.6
20211024115038 19 88 3.2 19.3 0.00 0.00 0.00 77 1009.6
20211024114600 19 173 3.2 19.3 0.00 0.00 0.00 77 1009.6
20211024114036 19 226 4.8 17.7 0.00 0.00 0.00 77 1009.6
20211024113532 19 198 1.6 12.9 0.00 0.00 0.00 77 1009.5
20211024113045 19 237 1.6 12.9 0.00 0.00 0.00 77 1009.6
20211024112538 19 165 3.2 12.9 0.00 0.00 0.00 77 1009.6
20211024112033 19 144 1.6 8.0 0.00 0.00 0.00 77 1009.6
20211024111608 19 127 3.2 8.0 0.00 0.00 0.00 77 1009.6
20211024111032 19 157 1.6 14.5 0.00 0.00 0.00 77 1009.4
20211024110536 19 173 4.8 14.5 0.00 0.00 0.00 77 1009.4
20211024110039 19 117 3.2 14.5 0.00 0.00 0.00 77 1009.2
20211024105537 19 182 3.2 14.5 0.00 0.00 0.00 77 1009.2
20211024105030 19 138 3.2 11.3 0.00 0.00 0.00 77 1009.2
20211024104556 20 105 3.2 12.9 0.00 0.00 0.00 77 1009.1
20211024104029 20 126 4.8 12.9 0.00 0.00 0.00 77 1009.1
20211024103529 20 132 1.6 9.7 0.00 0.00 0.00 76 1009.0
20211024103053 20 163 3.2 9.7 0.00 0.00 0.00 76 1009.1
20211024102536 20 163 4.8 12.9 0.00 0.00 0.00 76 1009.1
20211024102033 20 155 4.8 14.5 0.00 0.00 0.00 76 1009.2
20211024101527 20 169 4.8 16.1 0.00 0.00 0.00 76 1009.1
20211024101026 20 146 4.8 11.3 0.00 0.00 0.00 76 1009.1
20211024100525 20 142 1.6 11.3 0.00 0.00 0.00 76 1009.1
20211024100032 20 146 3.2 12.9 0.00 0.00 0.00 76 1009.2
20211024095543 20 180 3.2 14.5 0.00 0.00 0.00 76 1009.1
20211024095025 20 132 1.6 8.0 0.00 0.00 0.00 76 1009.1
20211024094617 20 132 1.6 12.9 0.00 0.00 0.00 76 1009.1
20211024094040 20 144 3.2 12.9 0.00 0.00 0.00 76 1009.0
20211024093534 20 131 3.2 11.3 0.00 0.00 0.00 76 1009.0
20211024093039 20 202 3.2 11.3 0.00 0.00 0.00 76 1009.1
20211024092522 20 176 3.2 19.3 0.00 0.00 0.00 76 1009.0
20211024092021 20 157 6.4 19.3 0.00 0.00 0.00 76 1009.0
20211024091556 20 138 3.2 12.9 0.00 0.00 0.00 76 1009.0
20211024091021 20 165 3.2 16.1 0.00 0.00 0.00 76 1009.0
20211024090520 20 163 4.8 17.7 0.00 0.00 0.00 76 1009.1
20211024090021 20 147 4.8 17.7 0.00 0.00 0.00 76 1009.2
20211024085519 20 142 3.2 14.5 0.00 0.00 0.00 76 1009.3
20211024085029 21 113 3.2 14.5 0.00 0.00 0.00 76 1009.3
20211024084544 21 189 8.0 14.5 0.00 0.00 0.00 76 1009.4
20211024084017 21 109 1.6 16.1 0.00 0.00 0.00 76 1009.4
20211024083518 21 155 3.2 16.1 0.00 0.00 0.00 76 1009.3
20211024083037 21 139 4.8 16.1 0.00 0.00 0.00 76 1009.2
20211024082522 21 143 3.2 14.5 0.00 0.00 0.00 76 1009.2
20211024082026 21 103 1.6 8.0 0.00 0.00 0.00 76 1009.3
20211024081553 21 138 1.6 9.7 0.00 0.00 0.00 75 1009.2
20211024081015 21 169 3.2 9.7 0.00 0.00 0.00 75 1009.4
20211024080517 21 131 3.2 14.5 0.00 0.00 0.00 75 1009.4
20211024080036 21 130 3.2 14.5 0.00 0.00 0.00 75 1009.5
20211024075514 21 103 3.2 12.9 0.00 0.00 0.00 75 1009.6
20211024075024 21 184 4.8 19.3 0.00 0.00 0.00 75 1009.5
20211024074516 21 121 4.8 19.3 0.00 0.00 0.00 75 1009.5
20211024074011 21 155 3.2 12.9 0.00 0.00 0.00 75 1009.5
20211024073516 21 146 6.4 19.3 0.00 0.00 0.00 75 1009.6
20211024073017 21 107 8.0 19.3 0.00 0.00 0.00 75 1009.6
20211024072014 21 133 4.8 17.7 0.00 0.00 0.00 75 1009.4
20211024071511 22 153 1.6 16.1 0.00 0.00 0.00 75 1009.4
20211024071009 22 144 3.2 19.3 0.00 0.00 0.00 75 1009.4
20211024070508 22 148 4.8 22.5 0.00 0.00 0.00 74 1009.4
20211024070008 22 166 8.0 22.5 0.00 0.00 0.00 74 1009.3
20211024065508 22 159 3.2 14.5 0.00 0.00 0.00 74 1009.2
20211024065006 22 132 3.2 22.5 0.00 0.00 0.00 74 1009.3
20211024064511 22 123 6.4 22.5 0.00 0.00 0.00 74 1009.3
20211024064017 22 113 6.4 16.1 0.00 0.00 0.00 74 1009.4
20211024063505 22 172 1.6 14.5 0.00 0.00 0.00 74 1009.5
20211024063006 22 129 6.4 16.1 0.00 0.00 0.00 74 1009.5
20211024062505 22 130 6.4 20.9 0.00 0.00 0.00 74 1009.4
20211024062002 22 160 8.0 20.9 0.00 0.00 0.00 74 1009.4
20211024061503 22 167 4.8 17.7 0.00 0.00 0.00 75 1009.4
20211024061003 22 127 3.2 14.5 0.00 0.00 0.00 75 1009.5
20211024060619 22 151 3.2 14.5 0.00 0.00 0.00 75 1009.4
20211024060313 22 109 4.8 14.5 0.00 0.00 0.00 75 1009.5
20211024055601 22 161 3.2 14.5 0.00 0.00 0.00 75 1009.5
20211024055059 22 118 4.8 11.3 0.00 0.00 0.00 75 1009.4
20211024054622 22 150 3.2 12.9 0.00 0.00 0.00 74 1009.3
20211024054058 22 104 3.2 12.9 0.00 0.00 0.00 74 1009.3
20211024053608 22 142 3.2 12.9 0.00 0.00 0.00 74 1009.6
20211024053215 22 115 1.6 14.5 0.00 0.00 0.00 74 1009.7
20211024052555 23 149 4.8 14.5 0.00 0.00 0.00 74 1009.7
20211024052106 23 145 1.6 17.7 0.00 0.00 0.00 74 1009.7
20211024051645 23 131 4.8 17.7 0.00 0.00 0.00 74 1009.7
20211024051052 23 137 4.8 17.7 0.00 0.00 0.00 74 1009.7
20211024050607 23 128 4.8 12.9 0.00 0.00 0.00 73 1009.7
20211024050057 23 150 4.8 16.1 0.00 0.00 0.00 73 1009.7
20211024045554 23 174 4.8 16.1 0.00 0.00 0.00 73 1009.7
20211024045127 23 148 4.8 14.5 0.00 0.00 0.00 73 1009.7
20211024044605 23 166 4.8 14.5 0.00 0.00 0.00 73 1009.6
20211024044050 23 140 3.2 16.1 0.00 0.00 0.00 72 1009.5
20211024043550 23 150 4.8 17.7 0.00 0.00 0.00 72 1009.6
20211024043317 23 105 4.8 17.7 0.00 0.00 0.00 72 1009.6
20211024042549 23 163 3.2 14.5 0.00 0.00 0.00 72 1009.6